DECAYED

STARLINK-1785, 47124 (Decayed)

Orbit data source: Space-Track

STARLINK-1785, 47124 was a payload satellite owned by SpaceX/Seattle (US) in LEO that was launched on Wed, 25 Nov 2020 UTC via an FALCON 9 launch vehicle from the Air Force Eastern Test Range (AFETR). Payload-class satellites include a variety of spacecraft equipped with specific instruments for various scientific and technological missions. These include communications satellites like Starlink; space stations such as the ISS; scientific satellites like the Hubble; Earth observation satellites from companies like Planet Labs, Umbra, and HawkEye 360; GPS; miniature CubeSats for education and research; and military/defense satellites.

Not visible in the next 10 days
Identifier
47124, 2020-088C
Orbit
Decayed
Country
Flag of USUS
Related business
Manufacturer
SpaceX/Seattle
Mission
Decayed Commercial Communications
Bus & Motor
STARLINK, Unknown motor
Mass
260 kg wet, ~248 kg dry
Launch date (UTC)
2020-11-25 (6 years ago)
Launch vehicle
FALCON 9
Launch site
Air Force Eastern Test Range (AFETR)
Object type
Payload
Rocket body
Debris
Shape & HBR
Box + 1 Pan, 10.1 m
Radar Cross Section
13.562 m², Large (>1 m²)

Expand to show TLE details & history
Last TLE update: 1 year ago

TLE from 1 year ago
0 STARLINK-1785
1 47124U 20088C   25039.49200662  .11381067  12373-4  86726-3 0  9993
2 47124  53.0264 238.7234 0006625 281.7792 170.1045 16.39567584233048
Epoch: 2025-02-08T11:48Z
TLE epoch observation values (Epoch: 2025-02-08T11:48:29.371Z)
Latitude
53.14325°
Longitude
15.91708°
Altitude
177.691 km
Speed
7.804 km/s
True Right ascension
22h 07m 30s
True Declination
52° 57' 48"
Sunlit
Object was in daylight at epoch
Visualization orbit readout
Latitude
Unknown
Longitude
Unknown
Altitude
Unknown
Speed
Unknown
Apparent Right ascension
Unknown
Apparent Declination
Unknown
Sunlit
N/A
Visualization observer readout
Local Sidereal Time
21:24:47
Azimuth
Unknown
Elevation
Unknown
Doppler factor
Unknown
Orbital elements
Apogee altitude
171.58 km
Perigee altitude
162.907 km
Semi-major axis
6,545.381 km
Eccentricity
0.00066
Inclination
53.0264°
RAAN
238.7234°
Arg. of periapsis
281.7792°
True anomaly
170.11754°
Mean anomaly
170.1045°
Eccentric anomaly
170.11102°
Mean motion
4.09865 °/min
Orbital period
87.83 mins
BSTAR
0.00086726
Loading maneuver chart data...
Computing Atmospheric mass density...

Documentation

Showing up to 5 results
|